QPF
0.00 0.00 0.00 0.00 0.00 0.00 0.00 0.00 0.00 0.00 0.00 0.00 0.00 0.00 0.00 0.00 0.00 0.00 0.00 0.00 0.00 0.00 0.00 0.00 0.00 0.00 0.00 0.00 0.00 0.00 0.00 0.00 0.00 0.00 0.00 0.00 0.00 0.00 0.00 0.00 0.00 0.00 0.00 0.00 0.00
0.00 0.00 0.00 0.00 0.00 0.00 0.00 0.00 0.00 0.00 0.00 0.00 0.00 0.00 0.00 0.00 0.00 0.00 0.00 0.00 0.00 0.00 0.00 0.00 0.00 0.00 0.00 0.00 0.00 0.00 0.00 0.00 0.00 0.00 0.00 0.00 0.00 0.00 0.00 0.00 0.00 0.00 0.00 0.00 0.00
0.00 0.00 0.00 0.00 0.00 0.00 0.00 0.00 0.00 0.00 0.00 0.00 0.00 0.00 0.00 0.00 0.00 0.00 0.00 0.00 0.00 0.00 0.00 0.00 0.00 0.00 0.00 0.00 0.00 0.00 0.00 0.00 0.00 0.00 0.00 0.00 0.00 0.00 0.00 0.00 0.00 0.00 0.00 0.00 0.00
0.00 0.00 0.00 0.00 0.00 0.00 0.00 0.00 0.00 0.00 0.00 0.00 0.00 0.00 0.00 0.00 0.00 0.00 0.00 0.00 0.00 0.00 0.00 0.00 0.00 0.00 0.00 0.00 0.00 0.00 0.00 0.00 0.00 0.00 0.00 0.00 0.00 0.00 0.00 0.00 0.00 0.00 0.00 0.00 0.00
0.00 0.00 0.00 0.00 0.00 0.00 0.00 0.00 0.00 0.00 0.00 0.00 0.00 0.00 0.00 0.00 0.00 0.00 0.00 0.00 0.01 0.00 0.00 0.00 0.00 0.00 0.00 0.00 0.00 0.00 0.00 0.00 0.00 0.00 0.00 0.00 0.00 0.00 0.00 0.00 0.00 0.00 0.00 0.00 0.00
0.00 0.00 0.00 0.00 0.00 0.00 0.00 0.00 0.00 0.00 0.00 0.00 0.00 0.00 0.00 0.00 0.00 0.00 0.00 0.00 0.01 0.00 0.00 0.00 0.00 0.00 0.00 0.00 0.00 0.00 0.00 0.00 0.00 0.00 0.00 0.00 0.00 0.00 0.00 0.00 0.00 0.00 0.00 0.00 0.00
0.00 0.00 0.00 0.00 0.00 0.00 0.00 0.00 0.00 0.00 0.00 0.00 0.00 0.00 0.00 0.00 0.00 0.00 0.00 0.00 0.00 0.01 0.00 0.00 0.00 0.00 0.00 0.00 0.00 0.00 0.00 0.00 0.00 0.00 0.00 0.00 0.00 0.00 0.00 0.00 0.00 0.00 0.00 0.00 0.00
0.00 0.00 0.00 0.00 0.00 0.00 0.00 0.00 0.00 0.00 0.00 0.00 0.00 0.00 0.00 0.00 0.00 0.00 0.00 0.00 0.00 0.00 0.00 0.00 0.00 0.00 0.00 0.00 0.00 0.00 0.00 0.00 0.00 0.00 0.00 0.00 0.00 0.00 0.00 0.00 0.00 0.00 0.00 0.00 0.00
0.00 0.00 0.00 0.00 0.00 0.00 0.00 0.00 0.00 0.00 0.00 0.00 0.00 0.00 0.00 0.00 0.00 0.00 0.00 0.00 0.00 0.00 0.00 0.00 0.00 0.00 0.00 0.00 0.00 0.00 0.00 0.01 0.00 0.00 0.00 0.00 0.00 0.00 0.00 0.00 0.00 0.00 0.00 0.00 0.00
0.00 0.00 0.00 0.00 0.00 0.00 0.00 0.00 0.00 0.00 0.00 0.00 0.00 0.00 0.00 0.00 0.00 0.00 0.00 0.00 0.00 0.00 0.00 0.00 0.00 0.00 0.00 0.00 0.00 0.00 0.00 0.00 0.00 0.01 0.00 0.00 0.00 0.00 0.00 0.00 0.00 0.00 0.00 0.00 0.00
0.00 0.00 0.00 0.00 0.00 0.00 0.00 0.00 0.00 0.00 0.00 0.00 0.00 0.00 0.00 0.00 0.00 0.00 0.00 0.00 0.00 0.00 0.00 0.00 0.00 0.00 0.00 0.00 0.00 0.00 0.00 0.00 0.00 0.00 0.00 0.00 0.00 0.00 0.00 0.00 0.00 0.00 0.00 0.00 0.00
0.00 0.00 0.00 0.00 0.00 0.00 0.00 0.00 0.00 0.00 0.00 0.00 0.00 0.00 0.00 0.00 0.00 0.00 0.00 0.00 0.00 0.00 0.00 0.00 0.00 0.00 0.00 0.00 0.00 0.00 0.00 0.00 0.00 0.00 0.00 0.00 0.00 0.00 0.00 0.00 0.00 0.00 0.00 0.00 0.00
0.00 0.00 0.00 0.00 0.00 0.00 0.00 0.00 0.00 0.00 0.00 0.00 0.00 0.00 0.00 0.00 0.00 0.00 0.00 0.00 0.00 0.00 0.00 0.00 0.00 0.00 0.00 0.00 0.00 0.00 0.00 0.00 0.00 0.00 0.00 0.00 0.00 0.00 0.00 0.00 0.00 0.00 0.00 0.00 0.00
0.00 0.00 0.00 0.00 0.00 0.00 0.00 0.00 0.00 0.00 0.00 0.00 0.00 0.00 0.00 0.00 0.00 0.00 0.00 0.00 0.00 0.00 0.00 0.00 0.00 0.00 0.00 0.00 0.00 0.00 0.00 0.00 0.00 0.00 0.00 0.00 0.00 0.00 0.00 0.00 0.00 0.00 0.00 0.00 0.00
0.00 0.00 0.00 0.00 0.00 0.00 0.00 0.00 0.00 0.00 0.00 0.00 0.00 0.00 0.00 0.00 0.00 0.00 0.00 0.00 0.00 0.00 0.00 0.00 0.00 0.00 0.00 0.00 0.00 0.00 0.00 0.00 0.00 0.00 0.00 0.00 0.00 0.00 0.00 0.00 0.00 0.00 0.00 0.00 0.00
0.00 0.00 0.00 0.00 0.00 0.00 0.00 0.00 0.00 0.00 0.00 0.00 0.00 0.00 0.00 0.00 0.00 0.00 0.00 0.00 0.00 0.00 0.00 0.00 0.00 0.00 0.00 0.00 0.00 0.00 0.00 0.00 0.00 0.00 0.00 0.00 0.00 0.00 0.00 0.00 0.00 0.00 0.00 0.00 0.00
0.00 0.00 0.00 0.00 0.00 0.00 0.00 0.00 0.00 0.00 0.00 0.00 0.00 0.00 0.00 0.00 0.00 0.00 0.00 0.00 0.00 0.00 0.00 0.00 0.00 0.00 0.00 0.00 0.00 0.00 0.00 0.00 0.00 0.00 0.00 0.00 0.00 0.00 0.00 0.00 0.00 0.00 0.00 0.00 0.00
0.00 0.00 0.00 0.00 0.00 0.00 0.00 0.00 0.00 0.00 0.00 0.00 0.00 0.00 0.00 0.00 0.00 0.00 0.00 0.00 0.00 0.00 0.00 0.00 0.00 0.00 0.00 0.00 0.00 0.00 0.00 0.00 0.00 0.00 0.00 0.00 0.00 0.00 0.00 0.00 0.00 0.00 0.00 0.00 0.00
0.00 0.00 0.00 0.00 0.00 0.00 0.00 0.00 0.00 0.00 0.00 0.00 0.00 0.00 0.00 0.00 0.00 0.00 0.00 0.00 0.00 0.00 0.00 0.00 0.00 0.00 0.00 0.00 0.00 0.00 0.00 0.00 0.00 0.00 0.00 0.00 0.00 0.00 0.00 0.00 0.00 0.00 0.00 0.00 0.00
0.00 0.00 0.00 0.00 0.00 0.00 0.00 0.00 0.00 0.00 0.00 0.00 0.00 0.00 0.00 0.00 0.00 0.00 0.00 0.00 0.00 0.00 0.00 0.00 0.00 0.00 0.00 0.00 0.00 0.00 0.00 0.00 0.00 0.00 0.00 0.00 0.00 0.00 0.00 0.00 0.00 0.00 0.00 0.00 0.00
0.00 0.00 0.00 0.00 0.00 0.00 0.00 0.00 0.00 0.00 0.00 0.00 0.00 0.00 0.00 0.00 0.00 0.00 0.00 0.00 0.00 0.00 0.00 0.00 0.00 0.00 0.00 0.00 0.00 0.00 0.00 0.00 0.00 0.00 0.00 0.00 0.00 0.00 0.00 0.00 0.00 0.00 0.00 0.00 0.00
0.00 0.00 0.00 0.00 0.00 0.00 0.00 0.00 0.00 0.00 0.00 0.00 0.00 0.00 0.00 0.00 0.00 0.00 0.00 0.00 0.00 0.00 0.00 0.00 0.00 0.00 0.00 0.00 0.00 0.00 0.00 0.00 0.00 0.00 0.00 0.00 0.00 0.00 0.00 0.00 0.00 0.00 0.00 0.00 0.00
0.00 0.00 0.00 0.00 0.00 0.00 0.00 0.00 0.00 0.00 0.00 0.00 0.00 0.00 0.00 0.00 0.00 0.00 0.00 0.00 0.00 0.00 0.00 0.00 0.00 0.00 0.00 0.00 0.00 0.00 0.00 0.00 0.00 0.00 0.00 0.00 0.00 0.00 0.00 0.00 0.00 0.00 0.00 0.00 0.00
0.00 0.00 0.00 0.00 0.00 0.00 0.00 0.00 0.00 0.00 0.00 0.00 0.00 0.00 0.00 0.00 0.00 0.00 0.00 0.00 0.00 0.00 0.00 0.00 0.00 0.00 0.00 0.00 0.00 0.00 0.00 0.00 0.00 0.00 0.00 0.00 0.00 0.00 0.00 0.00 0.00 0.00 0.00 0.00 0.00
0.00 0.00 0.00 0.00 0.00 0.00 0.00 0.00 0.00 0.00 0.00 0.00 0.00 0.00 0.00 0.00 0.00 0.00 0.00 0.00 0.00 0.00 0.00 0.00 0.00 0.00 0.00 0.00 0.00 0.00 0.00 0.00 0.00 0.00 0.00 0.00 0.00 0.00 0.00 0.00 0.00 0.00 0.00 0.00 0.00
0.00 0.00 0.00 0.00 0.00 0.00 0.00 0.00 0.00 0.00 0.00 0.00 0.00 0.00 0.00 0.00 0.00 0.00 0.00 0.00 0.00 0.00 0.00 0.00 0.00 0.00 0.00 0.00 0.00 0.00 0.00 0.00 0.00 0.00 0.00 0.00 0.00 0.00 0.00 0.00 0.00 0.00 0.00 0.00 0.00
0.00 0.00 0.00 0.00 0.00 0.00 0.00 0.00 0.00 0.00 0.00 0.00 0.00 0.00 0.00 0.00 0.00 0.00 0.00 0.00 0.00 0.00 0.00 0.00 0.00 0.00 0.00 0.00 0.00 0.00 0.00 0.00 0.00 0.00 0.00 0.00 0.00 0.00 0.00 0.00 0.00 0.00 0.00 0.00 0.00
MSLP
1013.83 1013.59 1013.34 1013.02 1012.69 1012.32 1011.97 1011.77 1011.58 1011.50 1011.31 1010.89 1010.63 1010.37 1010.39 1009.96 1008.76 1008.70 1007.73 1005.88 1005.96 1006.40 1007.03 1007.17 1007.28 1007.21 1007.24 1007.78 1008.12 1008.39 1008.73 1009.00 1009.01 1009.25 1009.28 1009.48 1009.98 1010.18 1010.19 1010.54 1010.95 1011.35 1012.06 1012.64 1013.52
1013.93 1013.58 1013.25 1012.86 1012.50 1012.20 1011.97 1011.66 1011.43 1011.33 1011.26 1010.91 1010.52 1010.25 1010.12 1010.07 1009.16 1007.82 1005.64 1005.48 1005.95 1006.58 1007.08 1007.00 1007.09 1006.85 1007.21 1007.68 1007.87 1008.05 1008.34 1007.98 1007.65 1007.79 1008.56 1009.39 1009.67 1010.13 1010.50 1010.92 1011.32 1011.97 1012.43 1012.99 1013.71
1013.85 1013.49 1013.17 1012.77 1012.32 1012.05 1011.80 1011.55 1011.24 1011.22 1011.13 1010.94 1010.50 1010.05 1009.95 1009.96 1009.16 1006.57 1005.37 1005.72 1005.88 1006.51 1006.73 1006.93 1006.81 1006.73 1007.21 1007.56 1007.79 1007.84 1007.74 1007.59 1007.10 1007.01 1007.62 1009.08 1009.78 1010.03 1010.58 1011.20 1011.16 1011.76 1012.67 1013.33 1013.88
1013.78 1013.33 1013.02 1012.68 1012.17 1011.86 1011.63 1011.36 1011.15 1011.02 1011.00 1010.79 1010.52 1010.03 1009.71 1009.64 1008.42 1006.20 1005.80 1005.98 1005.92 1005.98 1006.10 1006.37 1006.66 1006.98 1007.47 1007.65 1007.57 1007.59 1007.19 1007.08 1007.00 1007.20 1007.92 1008.93 1009.60 1010.13 1010.33 1010.60 1010.88 1011.70 1012.44 1013.32 1013.85
1013.73 1013.31 1012.89 1012.40 1012.06 1011.76 1011.57 1011.25 1010.99 1010.92 1010.82 1010.59 1010.41 1010.09 1009.68 1008.79 1007.17 1006.41 1006.15 1006.38 1006.31 1006.42 1006.60 1006.89 1007.16 1007.46 1007.45 1007.59 1007.46 1007.40 1007.03 1006.52 1006.64 1007.25 1008.13 1008.77 1009.54 1010.01 1010.39 1010.58 1011.25 1011.86 1012.65 1013.19 1013.61
1013.70 1013.24 1012.70 1012.25 1011.98 1011.71 1011.51 1011.17 1010.85 1010.77 1010.62 1010.37 1010.24 1010.10 1009.62 1008.00 1006.44 1006.48 1006.63 1006.95 1006.72 1006.76 1006.69 1006.74 1006.70 1006.88 1007.20 1007.49 1007.59 1007.60 1007.46 1007.26 1007.28 1007.72 1008.31 1009.00 1009.87 1010.11 1010.63 1010.84 1011.46 1012.11 1012.51 1012.92 1013.29
1013.56 1013.04 1012.57 1012.17 1011.85 1011.53 1011.35 1011.08 1010.81 1010.59 1010.44 1010.18 1010.12 1009.93 1008.98 1007.15 1006.43 1006.76 1006.96 1007.08 1006.72 1006.54 1006.67 1006.34 1006.48 1006.76 1007.10 1007.37 1007.52 1007.62 1007.94 1007.84 1008.13 1008.22 1008.81 1009.12 1010.15 1010.27 1010.50 1010.89 1011.57 1011.98 1012.39 1012.72 1012.86
1013.47 1012.86 1012.41 1012.06 1011.59 1011.28 1011.07 1010.84 1010.69 1010.37 1010.31 1010.24 1010.09 1009.74 1008.01 1006.35 1006.46 1006.90 1007.00 1007.03 1006.88 1006.95 1006.86 1006.62 1006.63 1006.98 1007.48 1007.84 1008.07 1008.34 1008.22 1008.69 1008.54 1008.30 1008.89 1009.17 1010.02 1010.28 1010.57 1010.81 1011.54 1011.91 1012.12 1012.40 1012.72
1013.21 1012.62 1012.13 1011.74 1011.39 1011.00 1010.76 1010.48 1010.33 1010.19 1010.06 1010.16 1010.08 1009.47 1007.44 1006.36 1006.36 1006.09 1006.43 1006.58 1006.57 1006.49 1006.27 1006.32 1006.49 1007.44 1007.98 1008.57 1009.29 1009.54 1009.42 1009.29 1008.70 1008.42 1008.74 1009.30 1009.98 1010.11 1010.59 1011.05 1011.20 1011.49 1011.67 1011.86 1012.16
1013.16 1012.60 1012.03 1011.57 1011.15 1010.70 1010.40 1010.25 1010.22 1010.14 1010.12 1010.08 1009.59 1009.23 1007.13 1006.11 1005.77 1005.82 1006.19 1006.27 1006.35 1006.38 1006.61 1006.81 1007.53 1008.14 1008.89 1009.31 1009.70 1009.91 1010.01 1009.63 1009.21 1008.81 1008.86 1009.22 1009.58 1009.98 1010.36 1010.76 1010.91 1011.14 1011.33 1011.48 1011.57
1012.87 1012.39 1011.82 1011.17 1010.77 1010.50 1010.39 1010.46 1010.51 1010.11 1009.68 1008.68 1008.19 1007.58 1006.50 1005.76 1005.51 1005.86 1005.93 1006.13 1006.29 1006.61 1007.19 1007.60 1008.31 1008.57 1008.79 1008.76 1008.99 1009.54 1009.85 1009.68 1009.14 1009.02 1009.30 1009.39 1009.57 1009.62 1009.86 1010.52 1010.64 1010.82 1010.95 1011.04 1011.01
1013.06 1012.22 1011.50 1010.85 1010.39 1009.88 1010.00 1009.42 1008.58 1008.49 1008.45 1007.63 1007.43 1007.10 1006.35 1005.82 1005.81 1005.85 1005.90 1006.39 1006.75 1007.31 1007.57 1008.09 1008.09 1008.17 1008.18 1008.37 1008.89 1009.24 1009.56 1009.29 1009.07 1009.01 1009.42 1009.45 1009.40 1009.28 1009.39 1009.23 1009.55 1009.83 1010.20 1010.34 1010.68
1012.48 1011.93 1011.26 1010.65 1010.26 1010.12 1009.47 1008.38 1007.81 1007.93 1008.32 1007.09 1006.71 1006.35 1005.77 1005.86 1005.78 1005.75 1006.00 1006.41 1006.96 1007.66 1007.98 1008.31 1007.97 1007.53 1007.81 1007.94 1008.60 1008.90 1009.10 1009.09 1009.14 1009.29 1009.51 1009.65 1009.42 1009.02 1008.71 1008.87 1009.12 1009.19 1009.27 1009.62 1009.94
1012.29 1011.72 1011.08 1010.43 1010.47 1009.66 1008.77 1007.84 1007.68 1007.74 1007.99 1006.77 1006.11 1005.16 1005.36 1005.43 1005.70 1005.36 1005.66 1006.25 1006.96 1007.53 1008.29 1008.30 1007.63 1007.47 1007.50 1007.67 1008.09 1008.42 1008.05 1008.77 1009.29 1010.03 1010.47 1010.24 1010.10 1008.90 1008.37 1008.23 1008.25 1008.35 1008.59 1008.77 1009.17
1011.89 1011.50 1011.04 1010.85 1010.25 1009.23 1008.29 1007.82 1007.59 1007.71 1007.55 1006.21 1005.38 1004.57 1004.99 1005.34 1005.53 1005.62 1005.54 1005.92 1006.84 1007.48 1008.16 1007.74 1007.44 1007.22 1007.27 1007.08 1007.44 1007.72 1007.80 1008.90 1010.15 1010.94 1011.27 1011.07 1010.92 1008.76 1008.24 1008.20 1007.37 1007.11 1007.38 1007.84 1008.21
1011.45 1011.09 1010.82 1010.54 1010.26 1008.14 1007.67 1007.62 1007.70 1008.23 1006.96 1005.73 1004.96 1004.88 1005.21 1005.32 1005.50 1005.74 1005.77 1005.97 1006.69 1007.41 1007.88 1007.80 1007.10 1006.83 1006.39 1006.42 1006.79 1007.51 1008.52 1010.04 1011.19 1011.92 1012.50 1011.28 1010.99 1008.99 1007.93 1006.28 1005.90 1006.46 1006.52 1006.79 1007.32
1011.08 1010.40 1010.56 1009.70 1008.89 1007.86 1007.69 1007.82 1008.75 1008.24 1006.96 1006.26 1005.70 1005.47 1005.57 1005.85 1005.90 1005.98 1006.40 1006.82 1007.42 1008.06 1008.36 1007.86 1007.15 1006.32 1006.00 1006.53 1006.94 1007.83 1009.67 1011.45 1012.71 1013.20 1012.68 1011.64 1011.13 1008.56 1005.92 1005.41 1005.01 1004.91 1005.15 1005.61 1006.21
1010.21 1009.47 1009.46 1009.03 1008.30 1008.11 1008.05 1008.79 1009.05 1008.11 1007.34 1006.48 1006.24 1006.19 1006.26 1006.18 1006.21 1006.49 1006.90 1007.55 1007.78 1008.26 1008.84 1008.30 1007.23 1006.36 1005.83 1005.99 1006.89 1008.05 1009.38 1011.23 1012.60 1013.68 1012.87 1011.94 1010.10 1007.05 1005.17 1004.50 1004.15 1003.75 1004.01 1005.08 1005.71
1009.55 1009.29 1009.36 1008.27 1008.04 1008.50 1008.87 1009.55 1008.94 1008.42 1007.64 1007.15 1006.65 1006.60 1006.68 1006.48 1006.53 1006.81 1007.28 1007.58 1007.60 1007.93 1008.57 1008.57 1007.71 1006.26 1005.85 1005.79 1006.22 1008.25 1009.56 1010.38 1012.08 1013.55 1013.26 1011.34 1009.29 1006.50 1004.74 1004.29 1003.96 1003.72 1004.10 1004.51 1005.02
1010.13 1009.55 1008.88 1007.95 1007.93 1008.32 1009.19 1009.84 1009.40 1008.51 1007.74 1007.39 1007.26 1007.04 1007.11 1007.00 1007.15 1007.41 1007.42 1007.13 1007.19 1007.30 1007.36 1008.54 1008.29 1007.07 1006.29 1006.18 1006.85 1007.37 1008.79 1010.52 1012.05 1013.25 1013.41 1011.41 1009.92 1007.66 1005.42 1004.51 1004.31 1004.32 1004.38 1004.56 1004.69
1010.15 1009.94 1008.73 1008.13 1008.16 1009.15 1010.45 1010.42 1009.57 1008.45 1008.04 1007.85 1007.74 1007.72 1007.74 1007.61 1007.55 1007.66 1007.72 1007.50 1007.30 1007.47 1007.72 1008.46 1008.89 1007.77 1007.12 1007.14 1007.40 1008.27 1009.10 1010.56 1011.84 1012.63 1012.74 1011.93 1009.62 1006.45 1005.41 1004.70 1004.38 1004.25 1004.19 1004.32 1004.36
1010.94 1010.72 1008.90 1008.35 1009.57 1011.54 1011.55 1010.87 1009.93 1009.13 1008.55 1008.38 1008.17 1008.36 1008.36 1008.30 1008.26 1008.17 1008.06 1008.16 1007.67 1007.60 1008.23 1008.66 1009.28 1009.20 1008.18 1007.24 1007.31 1007.81 1008.57 1009.99 1011.51 1012.50 1012.45 1011.35 1007.92 1005.38 1004.90 1004.40 1004.30 1003.92 1003.95 1003.74 1004.06
1012.67 1012.13 1009.53 1009.19 1011.49 1012.72 1012.20 1011.39 1010.62 1010.08 1009.78 1009.41 1009.37 1009.25 1009.08 1009.13 1009.24 1008.96 1008.76 1008.68 1008.30 1008.45 1008.80 1008.95 1009.79 1009.95 1008.83 1008.18 1007.66 1007.91 1008.23 1008.99 1010.16 1010.71 1011.16 1010.66 1007.52 1005.37 1004.99 1004.85 1004.30 1004.00 1003.69 1003.54 1003.77
1013.60 1013.68 1012.67 1012.40 1013.68 1013.57 1013.43 1012.74 1011.69 1010.94 1010.78 1010.52 1010.42 1010.03 1010.04 1010.07 1010.02 1010.04 1009.76 1009.39 1009.17 1009.25 1009.30 1009.31 1010.32 1010.39 1010.11 1009.38 1008.91 1008.71 1008.41 1008.87 1009.09 1010.19 1009.94 1008.93 1007.12 1005.83 1005.23 1005.04 1004.11 1003.54 1003.55 1003.53 1003.70
1014.83 1016.63 1016.40 1015.72 1015.38 1014.93 1014.36 1013.79 1013.13 1012.56 1012.03 1011.47 1011.45 1011.49 1011.44 1011.35 1011.23 1011.13 1010.77 1010.34 1010.01 1009.99 1010.01 1010.41 1010.92 1010.86 1010.35 1009.72 1009.33 1008.79 1008.39 1008.41 1009.04 1008.43 1008.61 1007.49 1007.29 1005.94 1005.28 1005.06 1004.33 1003.70 1003.32 1003.73 1003.90
1016.88 1017.59 1017.19 1017.07 1016.51 1015.82 1015.51 1015.31 1014.46 1014.00 1013.38 1012.80 1012.63 1012.19 1011.94 1012.08 1012.24 1012.17 1011.90 1011.80 1011.32 1011.06 1011.16 1011.54 1011.65 1011.58 1010.91 1009.66 1009.24 1008.63 1008.10 1007.97 1008.02 1008.07 1007.92 1007.50 1007.09 1006.39 1005.60 1005.10 1004.37 1004.06 1003.97 1003.58 1003.74
1018.05 1018.07 1017.87 1018.33 1017.80 1017.27 1017.06 1016.40 1015.61 1015.03 1014.18 1013.64 1013.43 1013.07 1012.71 1012.86 1012.88 1012.48 1012.43 1012.18 1011.88 1011.93 1012.15 1012.40 1012.46 1012.65 1011.85 1010.64 1009.61 1008.66 1007.88 1007.81 1007.68 1008.20 1008.77 1008.38 1007.88 1007.53 1006.35 1005.69 1004.90 1004.31 1003.93 1003.46 1003.20
Thickness
5771 5775 5779 5783 5786 5789 5792 5794 5795 5795 5796 5801 5803 5806 5806 5809 5822 5824 5824 5844 5844 5840 5835 5832 5828 5827 5828 5816 5816 5812 5780 5767 5769 5767 5773 5782 5773 5783 5789 5778 5781 5785 5778 5778 5778
5771 5775 5779 5784 5787 5790 5793 5795 5797 5797 5797 5801 5805 5807 5809 5810 5818 5825 5849 5853 5848 5842 5833 5828 5821 5828 5817 5814 5812 5800 5780 5791 5799 5797 5785 5783 5783 5781 5778 5774 5772 5772 5780 5781 5778
5772 5776 5780 5784 5789 5791 5794 5796 5798 5798 5799 5801 5805 5809 5811 5812 5815 5832 5853 5852 5851 5845 5840 5834 5833 5829 5816 5818 5812 5804 5794 5806 5811 5812 5810 5790 5784 5790 5778 5767 5777 5772 5772 5776 5776
5772 5777 5781 5785 5789 5793 5795 5798 5800 5801 5801 5803 5804 5809 5813 5815 5795 5840 5850 5851 5852 5852 5845 5836 5829 5819 5808 5806 5819 5802 5816 5817 5819 5816 5807 5793 5794 5784 5787 5784 5792 5786 5783 5778 5777
5772 5777 5781 5787 5790 5793 5795 5798 5801 5802 5803 5805 5806 5808 5812 5814 5822 5843 5846 5846 5849 5847 5837 5829 5819 5813 5804 5808 5816 5808 5817 5825 5826 5818 5808 5806 5792 5790 5789 5797 5795 5791 5785 5781 5782
5772 5776 5782 5787 5790 5793 5796 5800 5803 5804 5805 5808 5809 5809 5811 5804 5841 5842 5843 5840 5842 5840 5838 5835 5827 5828 5816 5812 5809 5817 5817 5818 5821 5816 5812 5798 5792 5797 5793 5800 5793 5789 5787 5787 5787
5772 5777 5782 5787 5790 5794 5797 5800 5804 5806 5807 5809 5810 5812 5812 5817 5839 5839 5838 5835 5841 5840 5833 5841 5838 5826 5822 5814 5824 5817 5805 5811 5807 5811 5803 5806 5787 5786 5800 5802 5794 5790 5789 5793 5795
5772 5778 5783 5786 5792 5795 5798 5801 5804 5807 5807 5808 5811 5812 5808 5841 5840 5835 5836 5832 5838 5839 5834 5838 5837 5824 5816 5822 5811 5802 5803 5781 5807 5813 5808 5803 5768 5793 5802 5801 5795 5795 5793 5794 5796
5773 5779 5784 5788 5792 5796 5799 5803 5805 5806 5808 5808 5810 5811 5811 5842 5832 5841 5839 5828 5833 5838 5841 5844 5836 5814 5812 5792 5780 5781 5765 5775 5792 5812 5807 5799 5779 5798 5800 5798 5798 5799 5798 5799 5799
5774 5779 5784 5789 5793 5798 5801 5804 5805 5806 5807 5807 5812 5804 5823 5823 5836 5841 5842 5838 5829 5830 5825 5820 5804 5792 5786 5778 5754 5766 5766 5773 5774 5798 5802 5793 5791 5798 5801 5798 5800 5801 5801 5801 5803
5778 5782 5787 5793 5797 5801 5803 5803 5801 5800 5805 5809 5813 5814 5823 5838 5845 5835 5841 5833 5829 5818 5797 5804 5786 5773 5786 5792 5796 5785 5774 5772 5787 5800 5793 5789 5793 5797 5804 5799 5800 5801 5803 5803 5807
5777 5784 5790 5796 5801 5806 5806 5807 5812 5813 5795 5817 5817 5817 5827 5836 5819 5828 5840 5816 5809 5791 5801 5789 5774 5795 5804 5801 5793 5788 5782 5778 5793 5799 5793 5790 5791 5801 5807 5810 5810 5810 5810 5812 5811
5782 5787 5793 5799 5803 5805 5810 5816 5824 5822 5793 5810 5818 5818 5826 5830 5817 5818 5827 5817 5802 5790 5789 5775 5795 5807 5805 5797 5787 5784 5780 5782 5789 5796 5796 5791 5786 5795 5810 5815 5816 5817 5821 5821 5818
5783 5788 5794 5800 5803 5809 5812 5824 5825 5823 5771 5799 5810 5825 5829 5830 5815 5836 5834 5820 5804 5787 5783 5783 5802 5803 5802 5794 5792 5779 5803 5801 5795 5780 5759 5790 5756 5795 5803 5810 5819 5822 5819 5823 5823
5785 5789 5793 5796 5803 5808 5819 5823 5825 5816 5749 5806 5813 5843 5832 5819 5821 5823 5837 5822 5796 5793 5788 5786 5795 5795 5789 5800 5803 5795 5812 5798 5787 5766 5770 5771 5759 5789 5807 5799 5813 5827 5831 5829 5830
5786 5790 5793 5796 5798 5817 5822 5823 5816 5766 5758 5798 5817 5811 5811 5816 5817 5819 5820 5828 5818 5799 5795 5790 5810 5808 5805 5815 5812 5811 5793 5775 5762 5756 5735 5761 5762 5777 5796 5817 5830 5831 5836 5837 5835
5786 5793 5793 5800 5806 5816 5819 5808 5757 5746 5793 5788 5797 5805 5801 5798 5804 5807 5798 5793 5779 5770 5770 5786 5795 5812 5818 5802 5807 5794 5764 5733 5737 5727 5734 5756 5757 5782 5825 5835 5841 5842 5845 5845 5842
5790 5796 5797 5802 5808 5810 5808 5776 5751 5772 5777 5799 5795 5792 5784 5793 5797 5795 5785 5774 5788 5779 5757 5760 5761 5797 5817 5807 5788 5783 5771 5734 5726 5720 5740 5755 5754 5792 5834 5847 5852 5859 5860 5851 5843
5790 5793 5794 5803 5805 5802 5784 5744 5751 5764 5782 5781 5786 5781 5780 5790 5794 5790 5778 5774 5784 5784 5763 5750 5763 5805 5813 5815 5811 5781 5764 5775 5731 5724 5728 5749 5776 5817 5840 5842 5850 5854 5854 5851 5848
5780 5785 5790 5799 5800 5793 5762 5745 5757 5772 5782 5781 5768 5777 5766 5776 5777 5776 5774 5790 5789 5790 5796 5776 5757 5791 5804 5812 5803 5800 5789 5756 5736 5733 5727 5741 5753 5776 5819 5832 5841 5843 5845 5847 5850
5777 5773 5786 5793 5792 5770 5741 5742 5758 5777 5778 5771 5766 5765 5767 5768 5769 5763 5774 5786 5792 5788 5789 5775 5763 5776 5793 5787 5777 5771 5765 5750 5746 5729 5724 5719 5750 5800 5816 5832 5839 5843 5847 5848 5851
5762 5751 5780 5785 5753 5728 5736 5747 5757 5763 5769 5764 5767 5762 5760 5761 5761 5763 5767 5768 5785 5788 5771 5773 5747 5744 5763 5791 5793 5786 5773 5760 5736 5736 5720 5722 5754 5825 5825 5836 5838 5843 5849 5855 5854
5738 5737 5767 5771 5725 5719 5730 5742 5747 5745 5747 5749 5746 5749 5754 5751 5747 5754 5757 5770 5774 5770 5767 5768 5737 5723 5747 5767 5781 5777 5773 5763 5746 5739 5723 5728 5765 5823 5820 5821 5831 5835 5845 5851 5852
5728 5727 5730 5730 5710 5717 5717 5720 5727 5739 5735 5734 5735 5739 5735 5733 5734 5733 5735 5752 5758 5760 5762 5759 5729 5733 5718 5742 5756 5756 5769 5758 5758 5726 5742 5737 5779 5805 5812 5815 5829 5838 5841 5844 5847
5704 5692 5693 5694 5699 5702 5705 5709 5710 5706 5716 5719 5717 5715 5715 5714 5717 5717 5724 5728 5741 5742 5742 5736 5723 5728 5730 5737 5741 5747 5757 5760 5744 5757 5752 5781 5760 5794 5806 5808 5821 5832 5840 5839 5840
5684 5680 5673 5672 5676 5692 5682 5684 5694 5691 5697 5702 5700 5705 5709 5704 5705 5701 5707 5707 5710 5720 5720 5712 5708 5710 5714 5734 5731 5732 5747 5753 5752 5757 5753 5768 5767 5791 5797 5806 5818 5824 5826 5834 5836
5661 5662 5665 5653 5663 5671 5667 5672 5679 5681 5689 5693 5691 5692 5695 5694 5695 5695 5697 5698 5704 5703 5697 5694 5687 5682 5680 5701 5708 5707 5733 5740 5751 5734 5732 5744 5759 5765 5780 5794 5807 5814 5820 5831 5836